Flag for Switzerland Weather past 2 weeks in Wädenswil, Zurich, Switzerland

Now
62 °F

Cool.


Feels Like: 62 °F
Forecast: 49 / 76 °F
Wind: 2 mph from East

Location: Zurich Town / Ville.

Current Time: Sep 16, 2014 at 12:29:47 PM

Latest Report: Sep 16, 2014 at 11:00 AM


Visibility: N/A

Pressure: 30.00 "Hg

Humidity: 85%

Dew point: 57 °F

Location of WädenswilLocation

Historic Weather in Wädenswil — Graph

°F

Wädenswil temperature yesterday

Maximum temperature yesterday: 70 °F (at 4:00 PM)
Minimum temperature yesterday: 54 °F (at 5:00 AM)
Average temperature yesterday: 61 °F

Past Weeks' High & Low Weather Summary

 TemperatureHumidityPressure
High80 °F (Sep 8, 3:00 PM)100% (Sep 16, 7:00 AM)30.16 "Hg (Sep 16, 7:00 AM)
Low49 °F (Sep 2, 4:00 AM)47% (Sep 7, 4:00 PM)29.84 "Hg (Sep 6, 4:00 PM)
Average61 °F82%30.01 "Hg
* Reported Sep 1 11:00 AM — Sep 16 11:00 AM, Wädenswil, Weather by CustomWeather, © 2014

Note: Actual official high and low records may vary slightly from our data, if they occured in-between our weather recording intervals... More about our weather records

Advertising

Wädenswil weather history for previous 24 hours

 ConditionsComfort  
Time TempWeatherWind HumidityBarometerVisibility
11:00 AM
Sep 16
62 °FCool.2 mph85%30.00 "HgN/A
10:00 AM59 °FCool.1 mph91%30.01 "HgN/A
9:00 AM57 °FCool.1 mph100%30.01 "HgN/A
8:00 AM56 °FCool.No wind100%30.01 "HgN/A
7:00 AM57 °FCool.1 mph100%30.00 "HgN/A
6:00 AM56 °FCool.1 mph96%29.99 "HgN/A
5:00 AM56 °FCool.1 mph96%29.99 "HgN/A
4:00 AM57 °FCool.2 mph95%29.99 "HgN/A
3:00 AM58 °FCool.1 mph95%29.98 "HgN/A
2:00 AM58 °FCool.2 mph96%29.99 "HgN/A
1:00 AM59 °FCool.3 mph92%29.98 "HgN/A
12:00 AM60 °FCool.1 mph92%29.98 "HgN/A
11:00 PM
Sep 15
60 °FCool.6 mph90%29.97 "HgN/A
10:00 PM61 °FCool.2 mph90%29.97 "HgN/A
9:00 PM62 °FCool.5 mph87%29.95 "HgN/A
8:00 PM64 °FMild.3 mph83%29.94 "HgN/A
7:00 PM67 °FMild.2 mph71%29.92 "HgN/A
6:00 PM68 °FMild.1 mph71%29.92 "HgN/A
5:00 PM68 °FMild.3 mph70%29.92 "HgN/A
4:00 PM70 °FMild.2 mph67%29.92 "HgN/A
3:00 PM68 °FMild.3 mph65%29.94 "HgN/A
2:00 PM66 °FMild.3 mph72%29.96 "HgN/A
1:00 PM64 °FMild.2 mph80%29.98 "HgN/A
12:00 PM61 °FCool.2 mph84%30.01 "HgN/A
Weather by CustomWeather, © 2014

See weather overviewHow to use our weather pages